Location: Angwan Shehu
(11.2514°N, 7.4613°E)
Time: 23:50:24
(UTC+00:00)

CZ-4 R/B - Pass Details

Date: 14 November 2019
Orbit: 581 x 588 km, 97.8° (Epoch: 12 December)

Event Time Altitude Azimuth Distance (km) Brightness Sun altitude
Rises 18:04:27 0° 167° (SSE) 2,791 8.0 -15.2°
Reaches altitude 10° 18:06:35 10° 167° (SSE) 1,893 7.1 -15.7°
Maximum altitude 18:10:41 86° 81° (E) 587 4.3 -16.7°
Drops below altitude 10° 18:14:49 10° 350° (N) 1,897 7.0 -17.6°
Sets 18:16:58 0° 350° (N) 2,798 7.9 -18.2°
